Regional Weather Roundup
Issued by NWS Columbia, SC

Home | Current Version | Previous Version | Text Only | Print | Product List | Glossary On
Versions: 1 2 3 4 5 6 7 8 9 10 11 12 13 14 15 16 17 18 19 20 21 22 23 24 25 26 27 28 29 30 31 32 33 34 35 36 37 38 39 40 41 42 43 44 45 46 47 48 49 50
192
ASUS42 KCAE 030610
RWRCAE
REGIONAL WEATHER ROUNDUP
NATIONAL WEATHER SERVICE COLUMBIA SC
200 AM EDT TUE MAY 03 2016

NOTE: "FAIR" INDICATES FEW OR NO CLOUDS BELOW 12,000 FEET WITH NO
SIGNIFICANT WEATHER AND/OR OBSTRUCTIONS TO VISIBILITY.

NOT ALL STATIONS ARE QUALITY CONTROLLED BY THE NATIONAL
WEATHER SERVICE. USE DATA WITH CAUTION...ESPECIALLY
DEWPOINT OBSERVATIONS.

SCZ001>056-GAZ040-063>065-077-030700-
...UPSTATE SOUTH CAROLINA...

CITY           SKY/WX    TMP DP  RH WIND       PRES   REMARKS
ANDERSON       LGT RAIN  67  65  93 S7        29.90F
6HR MIN TEMP:  67; 6HR MAX TEMP:  72; 6HR PCP:  0.02;

LIBERTY          N/A     65  60  84 SW5       29.89S
6HR MIN TEMP:  13; 6HR MAX TEMP:  86;

SPARTANBURG    CLOUDY    66  63  88 SW8       29.89F
CLEMSON        LGT RAIN  66  62  87 CALM      29.90F
6HR MIN TEMP:  66; 6HR MAX TEMP:  76; 6HR PCP:  0.02;

GREENVILLE     LGT RAIN  69  63  81 S8        29.90F
6HR MIN TEMP:  69; 6HR MAX TEMP:  77; 6HR PCP: TRACE;

GREENWOOD      LGT RAIN  65  63  93 SW8       29.92F
6HR MIN TEMP:  65; 6HR MAX TEMP:  72; 6HR PCP:  0.25;

GREER          CLOUDY    68  66  93 S9        29.88F
6HR MIN TEMP:  68; 6HR MAX TEMP:  74; 6HR PCP:  0.03;

ROCK HILL      HVY RAIN  66  63  90 SW12G24   29.92R FOG
6HR MIN TEMP:  66; 6HR MAX TEMP:  72; 6HR PCP:  0.09;

CHESTER        RAIN      64  63  94 SW5       29.92S
LAURENS        MOCLDY    64  64 100 S7        29.90F


...CENTRAL SOUTH CAROLINA...

CITY           SKY/WX    TMP DP  RH WIND       PRES   REMARKS
COLUMBIA APT   CLOUDY    69  66  90 CALM      29.90F
6HR MIN TEMP:  69; 6HR MAX TEMP:  72; 6HR PCP:  0.10;

COLUMBIA OWENS CLOUDY    69  66  90 CALM      29.91F
6HR MIN TEMP:  69; 6HR MAX TEMP:  73; 6HR PCP:  0.30;

ORANGEBURG     LGT RAIN  71  69  93 SW7       29.91F
6HR MIN TEMP:  69; 6HR MAX TEMP:  71; 6HR PCP:  0.04;

NEWBERRY       CLOUDY    64  63  94 SW5       29.94S
AIKEN          HVY RAIN  64  64 100 SW10      29.97S
BARNWELL       FAIR      70  70 100 CALM      29.92F
MANNING        CLOUDY    72  70  94 S7        29.90F
CAMDEN         LGT RAIN  68  66  94 W10       29.93S
LANCASTER      CLOUDY    66  66 100 SW14      29.92R FOG
WINNSBORO      RAIN      64  64 100 S5        29.91F


...EASTERN AND COASTAL SOUTH CAROLINA...

CITY           SKY/WX    TMP DP  RH WIND       PRES   REMARKS
MYRTLE BEACH   MOCLDY    73  66  78 S9        29.93F
6HR MIN TEMP:  73; 6HR MAX TEMP:  75;

N MYRTLE BCH   CLOUDY    73  71  93 S10       29.91F
6HR MIN TEMP:  72; 6HR MAX TEMP:  74; 6HR PCP: TRACE;

CONWAY         FAIR      70  70 100 S7        29.90F
MARION         FAIR      70  68  94 S8        29.90F
HARTSVILLE     CLOUDY    66  64  94 SW8       29.90F
FLORENCE       MOCLDY    70  68  93 W5        29.89F
6HR MIN TEMP:  70; 6HR MAX TEMP:  75; 6HR PCP:  0.07;

DARLINGTON     CLOUDY    70  68  93 SW16      29.90F
6HR MIN TEMP:  69; 6HR MAX TEMP:  70; 6HR PCP:  0.10;

CHARLESTON APT CLOUDY    74  70  87 S13       29.92F
6HR MIN TEMP:  74; 6HR MAX TEMP:  75; 6HR PCP: TRACE;

MOUNT PLEASANT MOCLDY    75  73  94 S10       29.93S
WALTERBORO     CLOUDY    73  73 100 S8        29.92F
BEAUFORT       CLOUDY    74  71  91 S7        29.92F
6HR MIN TEMP:  70; 6HR MAX TEMP:  74; 6HR PCP:  0.07;



...EASTERN GEORGIA...

CITY           SKY/WX    TMP DP  RH WIND       PRES   REMARKS
AUGUSTA BUSH F LGT RAIN  67  66  97 S6        29.90F
6HR MIN TEMP:  67; 6HR MAX TEMP:  71; 6HR PCP:  0.51;

AUGUSTA DANIEL LGT RAIN  69  66  90 CALM      29.91F
6HR MIN TEMP:  69; 6HR MAX TEMP:  72; 6HR PCP:  1.03;

WASHINGTON     MOCLDY    63  63 100 CALM      29.91F
CLAXTON        FAIR      70  70 100 CALM      29.92F FOG
6HR MIN TEMP:  69; 6HR MAX TEMP:  70;

SYLVANIA       CLOUDY    71  71 100 S6        29.92F
6HR MIN TEMP:  69; 6HR MAX TEMP:  72;

STATESBORO     CLOUDY    74  74 100 S5        29.91F
6HR MIN TEMP:  72; 6HR MAX TEMP:  74;

SAVANNAH       CLOUDY    74  72  93 S10       29.92F
6HR MIN TEMP:  70; 6HR MAX TEMP:  75; 6HR PCP:  0.71;



...SOUTHERN NORTH CAROLINA...

CITY           SKY/WX    TMP DP  RH WIND       PRES   REMARKS
CHARLOTTE      TSTM      67  63  87 SW17G25   29.91S FOG
6HR MIN TEMP:  67; 6HR MAX TEMP:  72; 6HR PCP:  0.21;

MONROE         LGT RAIN  67  63  87 SW16G26   29.89S
6HR MIN TEMP:  67; 6HR MAX TEMP:  69; 6HR PCP: TRACE;

WADESBORO      CLOUDY    68  68 100 S3        29.86F
6HR MIN TEMP:  68; 6HR MAX TEMP:  70;

ROCKINGHAM     CLOUDY    67  66  97 S7        29.88F
6HR MIN TEMP:  67; 6HR MAX TEMP:  68; 6HR PCP:  0.01;

RUTHERFORDTON  CLOUDY    64  64 100 CALM      29.90F
6HR MIN TEMP:  64; 6HR MAX TEMP:  76;

ASHEVILLE      CLOUDY    61  58  90 N6        29.92S
6HR MIN TEMP:  60; 6HR MAX TEMP:  73; 6HR PCP:  0.30;


$$




USA.gov is the U.S. government's official web portal to all federal, state and local government web resources and services.